Location: Unspecified
(51.0950°N, 12.9690°E)
Time: 17:21:40
(UTC+00:00)

Cosmos 1954 Rocket - Pass Details

Date: 28 October 2021
Orbit: 751 x 782 km, 74.0° (Epoch: 02 December)

Event Time Altitude Azimuth Distance (km) Brightness Sun altitude
Rises 17:34:14 0° 337° (NNW) 3,241 7.5 -17.0°
Reaches altitude 10° 17:36:40 10° 342° (NNW) 2,316 6.7 -17.4°
Maximum altitude 17:41:49 53° 60° (ENE) 949 4.1 -18.2°
Enters shadow 17:44:15 29° 122° (ESE) 1,379 4.8 -18.6°
